CW2900 Weather Reports


Display with metric or nautical units.
time (UTC)temp
F
wind
direction
speed
MPH
gust
MPH
rain 1hr
in
rain 24hr
in
rain mn
in
humidity
%
barometer
mb
20191122194831 53 130 3.0 10.0 0.00 0.00 0.00 55 1022.1
20191122194331 53 89 4.0 10.0 0.00 0.00 0.00 56 1022.2
20191122193831 52 107 7.0 8.0 0.00 0.00 0.00 58 1022.2
20191122193331 53 60 7.0 8.0 0.00 0.00 0.00 59 1022.4
20191122192831 52 129 6.0 9.0 0.00 0.00 0.00 60 1022.4
20191122192330 52 84 4.0 9.0 0.00 0.00 0.00 58 1022.4
20191122191830 52 112 2.0 9.0 0.00 0.00 0.00 60 1022.5
20191122191331 52 115 7.0 10.0 0.00 0.00 0.00 61 1022.7
20191122190831 52 93 7.0 10.0 0.00 0.00 0.00 61 1022.6
20191122185830 52 124 4.0 7.0 0.00 0.00 0.00 61 1022.7
20191122185330 52 112 5.0 8.0 0.00 0.00 0.00 61 1022.7
20191122184830 52 155 1.0 9.0 0.00 0.00 0.00 62 1022.9
20191122184330 52 107 5.0 9.0 0.00 0.00 0.00 61 1022.7
20191122183830 52 119 3.0 6.0 0.00 0.00 0.00 64 1022.8
20191122183330 52 142 0.0 7.0 0.00 0.00 0.00 65 1022.9
20191122182829 52 157 5.0 7.0 0.00 0.00 0.00 63 1022.8
20191122182329 52 112 4.0 7.0 0.00 0.00 0.00 65 1023.0
20191122181829 51 141 6.0 9.0 0.00 0.00 0.00 67 1022.8
20191122181329 51 141 2.0 9.0 0.00 0.00 0.00 67 1023.1
20191122180929 51 85 1.0 7.0 0.00 0.00 0.00 66 1023.1
20191122180329 51 96 3.0 7.0 0.00 0.00 0.00 67 1023.1
20191122175829 51 118 2.0 6.0 0.00 0.00 0.00 68 1023.0
20191122175330 50 69 0.0 7.0 0.00 0.00 0.00 70 1022.9
20191122174829 50 91 5.0 7.0 0.00 0.00 0.00 69 1023.0
20191122174329 50 141 4.0 7.0 0.00 0.00 0.00 71 1023.0
20191122173829 50 89 5.0 7.0 0.00 0.00 0.00 72 1022.9
20191122173329 50 124 2.0 6.0 0.00 0.00 0.00 71 1023.1
20191122172929 50 93 4.0 5.0 0.00 0.00 0.00 72 1023.0
20191122172329 50 132 4.0 5.0 0.00 0.00 0.00 71 1022.9
20191122171829 50 117 1.0 7.0 0.00 0.00 0.00 72 1023.0
20191122171328 50 127 3.0 7.0 0.00 0.00 0.00 72 1023.1
20191122170828 50 66 4.0 6.0 0.00 0.00 0.00 71 1022.9
20191122170328 49 121 0.0 4.0 0.00 0.00 0.00 73 1022.5
20191122165828 49 68 1.0 4.0 0.00 0.00 0.00 73 1022.8
20191122165328 49 114 2.0 4.0 0.00 0.00 0.00 74 1022.8
20191122164828 49 129 3.0 4.0 0.00 0.00 0.00 74 1022.7
20191122164328 49 100 2.0 3.0 0.00 0.00 0.00 74 1022.7
20191122163828 49 95 0.0 4.0 0.00 0.00 0.00 74 1022.7
20191122163328 49 114 3.0 4.0 0.00 0.00 0.00 74 1022.7
20191122162828 49 36 0.0 2.0 0.00 0.00 0.00 74 1022.7
20191122162328 48 105 1.0 2.0 0.00 0.00 0.00 75 1022.4
20191122161858 48 15 1.0 2.0 0.00 0.00 0.00 76 1022.3
20191122161328 47 37 1.0 3.0 0.00 0.00 0.00 76 1022.2
20191122160828 47 15 1.0 3.0 0.00 0.00 0.00 75 1022.2
20191122160357 46 312 2.0 3.0 0.00 0.00 0.00 75 1021.9
20191122155858 46 359 0.0 3.0 0.00 0.00 0.00 75 1022.2
20191122155327 46 340 2.0 4.0 0.00 0.00 0.00 74 1022.1
20191122154827 45 319 2.0 4.0 0.00 0.00 0.00 75 1021.8
20191122154327 45 330 0.0 3.0 0.00 0.00 0.00 75 1021.8
20191122153827 44 323 2.0 4.0 0.00 0.00 0.00 75 1021.7
20191122153327 44 315 3.0 4.0 0.00 0.00 0.00 75 1021.8
20191122152827 43 303 3.0 5.0 0.00 0.00 0.00 76 1021.5
20191122152327 42 304 4.0 5.0 0.00 0.00 0.00 76 1021.3
20191122151827 42 296 4.0 5.0 0.00 0.00 0.00 77 1021.3
20191122151326 41 309 4.0 5.0 0.00 0.00 0.00 78 1021.0
20191122150826 41 301 3.0 4.0 0.00 0.00 0.00 79 1020.9
20191122150356 40 302 4.0 4.0 0.00 0.00 0.00 79 1020.8
20191122145826 40 304 3.0 5.0 0.00 0.00 0.00 80 1020.4
20191122145326 39 303 4.0 5.0 0.00 0.00 0.00 80 1020.4
20191122144827 39 296 4.0 5.0 0.00 0.00 0.00 80 1020.2
20191122144326 38 306 4.0 5.0 0.00 0.00 0.00 81 1020.0
20191122143826 38 320 3.0 5.0 0.00 0.00 0.00 81 1020.0
20191122143326 38 298 5.0 5.0 0.00 0.00 0.00 81 1020.0
20191122142827 38 298 4.0 6.0 0.00 0.00 0.00 81 1019.8
20191122142326 38 316 4.0 6.0 0.00 0.00 0.00 81 1020.0
20191122141926 38 303 4.0 5.0 0.00 0.00 0.00 81 1019.8
20191122141326 38 305 3.0 4.0 0.00 0.00 0.00 81 1019.8
20191122140856 38 309 3.0 4.0 0.00 0.00 0.00 81 1019.8
20191122140325 38 311 3.0 4.0 0.00 0.00 0.00 81 1019.7
20191122135826 38 307 3.0 4.0 0.00 0.00 0.00 81 1020.2
20191122135325 38 316 4.0 5.0 0.00 0.00 0.00 81 1020.2
20191122134855 38 307 3.0 5.0 0.00 0.00 0.00 80 1020.0
20191122134325 38 309 5.0 5.0 0.00 0.00 0.00 80 1020.0
20191122133825 39 305 3.0 5.0 0.00 0.00 0.00 80 1019.9
20191122133325 39 304 5.0 5.0 0.00 0.00 0.00 80 1020.0
20191122132825 39 308 3.0 6.0 0.00 0.00 0.00 80 1019.8
20191122132325 39 309 4.0 6.0 0.00 0.00 0.00 80 1019.6
20191122131825 39 296 4.0 6.0 0.00 0.00 0.00 79 1019.7
20191122131325 39 297 5.0 6.0 0.00 0.00 0.00 79 1019.5
20191122130825 39 297 4.0 5.0 0.00 0.00 0.00 79 1019.5
20191122130354 39 300 4.0 5.0 0.00 0.00 0.00 79 1019.4
20191122125824 39 302 4.0 5.0 0.00 0.00 0.00 78 1019.5
20191122125355 40 309 4.0 5.0 0.00 0.00 0.00 79 1019.7
20191122124825 39 309 4.0 5.0 0.00 0.00 0.00 78 1019.6
20191122124324 40 300 4.0 5.0 0.00 0.00 0.00 78 1019.7
20191122123824 40 310 4.0 5.0 0.00 0.00 0.00 78 1019.7
20191122122854 40 305 5.0 6.0 0.00 0.00 0.00 78 1019.6
20191122122354 40 298 4.0 5.0 0.00 0.00 0.00 78 1019.7
20191122121824 40 298 5.0 5.0 0.00 0.00 0.00 78 1019.7
20191122121354 40 305 4.0 5.0 0.00 0.00 0.00 78 1019.6
20191122120824 40 312 4.0 5.0 0.00 0.00 0.00 78 1019.5
20191122120354 40 293 3.0 5.0 0.00 0.00 0.00 78 1019.4
20191122115853 40 308 2.0 5.0 0.00 0.00 0.00 78 1019.7
20191122115323 40 309 4.0 5.0 0.00 0.00 0.00 78 1019.6
20191122114853 40 305 4.0 5.0 0.00 0.00 0.00 78 1019.4
20191122114353 40 295 4.0 5.0 0.00 0.00 0.00 78 1019.6
20191122113853 40 290 3.0 5.0 0.00 0.00 0.00 78 1019.4
20191122113353 40 303 4.0 5.0 0.00 0.00 0.00 78 1019.4
20191122112853 40 299 4.0 6.0 0.00 0.00 0.00 77 1019.4
20191122112323 40 304 4.0 6.0 0.00 0.00 0.00 77 1019.3
20191122111823 40 312 5.0 6.0 0.00 0.00 0.00 77 1019.4
20191122111353 40 316 5.0 6.0 0.00 0.00 0.00 77 1019.3
20191122110853 40 304 5.0 6.0 0.00 0.00 0.00 77 1019.2
20191122110352 40 302 6.0 6.0 0.00 0.00 0.00 77 1019.2
20191122105852 40 300 5.0 6.0 0.00 0.00 0.00 77 1019.3
20191122105352 41 309 5.0 7.0 0.00 0.00 0.00 77 1019.4
20191122104852 40 311 5.0 7.0 0.00 0.00 0.00 76 1019.2
20191122104352 40 319 5.0 7.0 0.00 0.00 0.00 76 1019.3
20191122103852 41 303 4.0 7.0 0.00 0.00 0.00 76 1019.5
20191122103352 40 300 5.0 6.0 0.00 0.00 0.00 77 1019.2
20191122102852 40 312 4.0 6.0 0.00 0.00 0.00 77 1019.3
20191122102352 40 311 6.0 7.0 0.00 0.00 0.00 77 1019.2
20191122101852 40 307 5.0 7.0 0.00 0.00 0.00 76 1019.3
20191122100852 40 302 4.0 5.0 0.00 0.00 0.00 76 1019.2
20191122100352 40 302 5.0 6.0 0.00 0.00 0.00 76 1019.3
20191122095852 40 299 3.0 6.0 0.00 0.00 0.00 77 1019.4
20191122095352 41 311 4.0 6.0 0.00 0.00 0.00 77 1019.6
20191122094851 41 309 4.0 5.0 0.00 0.00 0.00 76 1019.6
20191122094352 41 300 3.0 5.0 0.00 0.00 0.00 76 1019.5
20191122093851 41 302 3.0 5.0 0.00 0.00 0.00 76 1019.6
20191122093351 40 283 4.0 6.0 0.00 0.00 0.00 76 1019.3
20191122092851 41 296 3.0 6.0 0.00 0.00 0.00 75 1019.6
20191122092351 41 305 5.0 6.0 0.00 0.00 0.00 75 1019.4
20191122091851 41 305 5.0 6.0 0.00 0.00 0.00 75 1019.4
20191122091351 41 314 4.0 5.0 0.00 0.00 0.00 75 1019.5
20191122090851 41 300 3.0 6.0 0.00 0.00 0.00 75 1019.3
20191122090351 42 314 5.0 6.0 0.00 0.00 0.00 75 1019.3
20191122085851 41 311 5.0 6.0 0.00 0.00 0.00 76 1019.2
20191122085351 41 314 5.0 6.0 0.00 0.00 0.00 76 1019.3
20191122084850 41 300 4.0 6.0 0.00 0.00 0.00 76 1019.3
20191122084350 41 300 4.0 6.0 0.00 0.00 0.00 77 1019.3
20191122083850 41 302 4.0 6.0 0.00 0.00 0.00 77 1019.3
20191122083350 41 303 5.0 6.0 0.00 0.00 0.00 77 1019.4
20191122082850 41 310 4.0 7.0 0.00 0.00 0.00 78 1019.3
20191122082350 41 293 4.0 7.0 0.00 0.00 0.00 78 1019.2
20191122081850 40 307 6.0 6.0 0.00 0.00 0.00 78 1019.1
20191122081350 40 307 4.0 5.0 0.00 0.00 0.00 79 1019.2
20191122080851 40 302 4.0 5.0 0.00 0.00 0.00 80 1019.1
20191122080350 40 301 4.0 5.0 0.00 0.00 0.00 80 1019.0
20191122075850 40 303 4.0 5.0 0.00 0.00 0.00 80 1018.7
20191122075350 40 295 3.0 5.0 0.00 0.00 0.00 80 1018.7
20191122074849 40 302 3.0 6.0 0.00 0.00 0.00 80 1018.7
20191122074349 40 308 4.0 6.0 0.00 0.00 0.00 80 1018.7
20191122073850 40 302 5.0 5.0 0.00 0.00 0.00 81 1018.6
20191122073349 40 304 3.0 5.0 0.00 0.00 0.00 81 1018.6
20191122072849 40 297 4.0 5.0 0.00 0.00 0.00 82 1018.5
20191122072349 40 299 3.0 4.0 0.00 0.00 0.00 82 1018.5
20191122071849 40 293 3.0 3.0 0.00 0.00 0.00 82 1018.5
20191122071419 40 289 3.0 4.0 0.00 0.00 0.00 81 1018.4
20191122070849 41 289 4.0 4.0 0.00 0.00 0.00 80 1018.8
20191122070349 41 282 2.0 4.0 0.00 0.00 0.00 80 1018.8
20191122065849 41 295 3.0 6.0 0.00 0.00 0.00 79 1018.0
20191122065349 41 293 4.0 6.0 0.00 0.00 0.00 79 1018.0
20191122064848 40 297 5.0 6.0 0.00 0.00 0.00 80 1018.0
20191122064348 41 291 3.0 4.0 0.00 0.00 0.00 81 1018.0
20191122063849 41 302 4.0 4.0 0.00 0.00 0.00 83 1017.9
20191122063348 41 293 2.0 3.0 0.00 0.00 0.00 84 1018.0
20191122062848 41 288 3.0 3.0 0.00 0.00 0.00 85 1017.9
20191122062348 41 288 3.0 4.0 0.00 0.00 0.00 85 1017.8
20191122061848 42 295 3.0 4.0 0.00 0.00 0.00 84 1018.1
20191122061348 42 281 3.0 5.0 0.00 0.00 0.00 85 1018.1
20191122060848 42 283 2.0 5.0 0.00 0.00 0.00 86 1018.0
20191122060348 42 274 3.0 4.0 0.00 0.00 0.00 86 1018.1
20191122055848 42 289 3.0 5.0 0.00 0.00 0.00 85 1018.2
20191122055348 42 300 5.0 5.0 0.00 0.00 0.00 86 1018.1
20191122054918 41 295 3.0 3.0 0.00 0.00 0.00 85 1018.0
20191122054348 42 281 2.0 3.0 0.00 0.00 0.00 84 1018.0
20191122053847 42 295 3.0 3.0 0.00 0.00 0.00 87 1018.1
20191122053347 42 275 2.0 2.0 0.00 0.00 0.00 85 1018.1
20191122052847 42 241 2.0 3.0 0.00 0.00 0.00 84 1018.0
20191122052347 42 311 1.0 3.0 0.00 0.00 0.00 85 1018.0
20191122051847 42 304 2.0 3.0 0.00 0.00 0.00 83 1018.0
20191122051347 43 313 2.0 2.0 0.00 0.00 0.00 84 1018.1
20191122050847 43 106 0.0 0.0 0.00 0.00 0.00 84 1018.2
20191122045847 43 104 0.0 1.0 0.00 0.00 0.00 84 1017.7
20191122045347 43 105 0.0 2.0 0.00 0.00 0.00 83 1017.5
20191122044848 43 105 1.0 2.0 0.00 0.00 0.00 82 1017.5
20191122044347 44 104 1.0 2.0 0.00 0.00 0.00 81 1017.5
20191122043847 44 307 0.0 2.0 0.00 0.00 0.00 80 1017.3
20191122043347 45 306 0.0 2.0 0.00 0.00 0.00 81 1017.6
20191122042846 45 308 2.0 4.0 0.00 0.00 0.00 81 1017.4
20191122042346 45 300 0.0 6.0 0.00 0.00 0.00 81 1017.4
20191122041846 45 302 3.0 6.0 0.00 0.00 0.00 81 1017.3
20191122041349 45 305 3.0 6.0 0.00 0.00 0.00 81 1017.2
20191122040846 44 303 4.0 6.0 0.00 0.00 0.00 81 1016.7
20191122040346 44 303 4.0 6.0 0.00 0.00 0.00 81 1016.7
20191122035846 45 319 4.0 6.0 0.00 0.00 0.00 80 1016.4
20191122035346 45 309 4.0 6.0 0.00 0.00 0.00 80 1016.3
20191122034915 45 288 6.0 6.0 0.00 0.00 0.00 81 1016.2
20191122034346 45 294 3.0 6.0 0.00 0.00 0.00 81 1016.1
20191122033846 45 283 4.0 6.0 0.00 0.00 0.00 81 1015.9
20191122033348 45 290 4.0 6.0 0.00 0.00 0.00 80 1015.9
20191122032845 44 292 5.0 6.0 0.00 0.00 0.00 81 1015.7
20191122032345 44 295 6.0 6.0 0.00 0.00 0.00 80 1015.5
20191122031845 44 279 5.0 6.0 0.00 0.00 0.00 80 1015.4
20191122031345 43 287 3.0 5.0 0.00 0.00 0.00 80 1015.3
20191122030845 43 273 3.0 4.0 0.00 0.00 0.00 80 1015.3
20191122030345 43 276 4.0 4.0 0.00 0.00 0.00 79 1015.3
20191122025845 43 285 3.0 4.0 0.00 0.00 0.00 78 1015.0
20191122025346 43 274 4.0 4.0 0.00 0.00 0.00 79 1014.9
20191122024845 43 267 2.0 4.0 0.00 0.00 0.00 78 1014.9
20191122024345 43 269 2.0 3.0 0.00 0.00 0.00 77 1014.7
20191122023844 44 267 2.0 4.0 0.00 0.00 0.00 76 1014.9
20191122023345 44 276 2.0 4.0 0.00 0.00 0.00 76 1015.0
20191122022844 45 248 2.0 3.0 0.00 0.00 0.00 74 1014.9
20191122022344 45 297 3.0 3.0 0.00 0.00 0.00 76 1014.8
20191122021845 45 301 3.0 3.0 0.00 0.00 0.00 76 1014.6
20191122020828 45 288 3.0 3.0 0.00 0.00 0.00 75 1014.5
20191122020358 46 278 2.0 2.0 0.00 0.00 0.00 75 1014.5
20191122015828 46 274 1.0 2.0 0.00 0.00 0.00 74 1014.6
20191122015329 46 276 2.0 2.0 0.00 0.00 0.00 74 1014.6
20191122014828 46 278 2.0 2.0 0.00 0.00 0.00 73 1014.5
20191122014328 47 278 1.0 2.0 0.00 0.00 0.00 73 1014.3
20191122013827 46 278 1.0 3.0 0.00 0.00 0.00 72 1014.3
20191122013327 46 285 2.0 3.0 0.00 0.00 0.00 71 1014.4
20191122012827 47 279 1.0 2.0 0.00 0.00 0.00 69 1014.4
20191122012327 47 279 1.0 2.0 0.00 0.00 0.00 68 1014.3
20191122011827 47 279 2.0 2.0 0.00 0.00 0.00 66 1014.1
20191122011327 48 353 0.0 0.0 0.00 0.00 0.00 65 1014.5
20191122010827 48 353 0.0 0.0 0.00 0.00 0.00 66 1014.6
20191122010357 48 353 0.0 0.0 0.00 0.00 0.00 66 1014.5
20191122005827 49 13 0.0 0.0 0.00 0.00 0.00 60 1014.2
20191122005327 49 13 0.0 0.0 0.00 0.00 0.00 60 1014.3
20191122004827 49 11 0.0 0.0 0.00 0.00 0.00 60 1014.1
20191122004326 49 11 0.0 0.0 0.00 0.00 0.00 59 1014.2
20191122003826 49 11 0.0 0.0 0.00 0.00 0.00 59 1014.0
20191122003326 49 50 0.0 0.0 0.00 0.00 0.00 59 1014.1
20191122002826 49 52 0.0 0.0 0.00 0.00 0.00 59 1014.1
20191122002326 50 52 0.0 0.0 0.00 0.00 0.00 58 1014.1
20191122001826 50 53 0.0 0.0 0.00 0.00 0.00 57 1013.9
20191122001326 50 53 0.0 0.0 0.00 0.00 0.00 57 1013.9
20191122000826 51 53 0.0 0.0 0.00 0.00 0.00 56 1014.1
20191122000356 51 53 0.0 0.0 0.00 0.00 0.00 56 1014.2
20191121235856 51 53 0.0 0.0 0.00 0.00 0.00 55 1013.9
20191121235326 52 52 0.0 1.0 0.00 0.00 0.00 55 1014.0
20191121234826 52 64 0.0 1.0 0.00 0.00 0.00 55 1014.0
20191121234326 51 64 1.0 2.0 0.00 0.00 0.00 55 1013.7
20191121233825 51 102 1.0 2.0 0.00 0.00 0.00 55 1013.6
20191121233325 51 115 0.0 2.0 0.00 0.00 0.00 56 1013.6
20191121232856 51 115 1.0 2.0 0.00 0.00 0.00 56 1013.6
20191121232429 51 127 2.0 3.0 0.00 0.00 0.00 57 1013.4
20191121231855 51 104 2.0 3.0 0.00 0.00 0.00 57 1013.4
20191121231325 51 64 0.0 4.0 0.00 0.00 0.00 56 1013.4
20191121230855 51 85 1.0 5.0 0.00 0.00 0.00 56 1013.2
20191121230355 51 91 1.0 5.0 0.00 0.00 0.00 56 1013.4
20191121225825 51 89 3.0 5.0 0.00 0.00 0.00 56 1013.4
20191121225325 51 58 2.0 8.0 0.00 0.00 0.00 56 1013.4
20191121224855 51 100 3.0 8.0 0.00 0.00 0.00 56 1013.4
20191121224354 51 115 5.0 5.0 0.00 0.00 0.00 56 1013.2
20191121223825 51 114 2.0 6.0 0.00 0.00 0.00 56 1013.3
20191121223354 51 110 3.0 6.0 0.00 0.00 0.00 56 1013.4
20191121222854 51 79 3.0 6.0 0.00 0.00 0.00 56 1013.2
20191121222424 51 89 3.0 8.0 0.00 0.00 0.00 56 1013.3
20191121221854 51 86 5.0 8.0 0.00 0.00 0.00 56 1013.0
20191121221355 51 65 5.0 6.0 0.00 0.00 0.00 55 1013.1
20191121220854 52 99 4.0 6.0 0.00 0.00 0.00 55 1013.3
20191121220354 51 152 4.0 7.0 0.00 0.00 0.00 55 1013.0
20191121215854 52 106 4.0 10.0 0.00 0.00 0.00 54 1013.5
20191121215354 52 118 3.0 10.0 0.00 0.00 0.00 53 1013.5
20191121214854 53 115 6.0 7.0 0.00 0.00 0.00 52 1013.4
20191121214354 53 186 3.0 4.0 0.00 0.00 0.00 53 1013.2
20191121213854 53 278 1.0 5.0 0.00 0.00 0.00 53 1013.0
20191121213353 52 126 1.0 5.0 0.00 0.00 0.00 54 1013.1
20191121212853 53 170 2.0 3.0 0.00 0.00 0.00 53 1013.1
20191121212353 53 164 0.0 4.0 0.00 0.00 0.00 53 1013.0
20191121211853 52 204 1.0 5.0 0.00 0.00 0.00 54 1013.0
20191121211353 52 135 3.0 5.0 0.00 0.00 0.00 54 1012.9
20191121210853 53 176 5.0 6.0 0.00 0.00 0.00 53 1012.9
20191121210353 52 144 1.0 6.0 0.00 0.00 0.00 54 1012.8
20191121205923 53 108 1.0 1.0 0.00 0.00 0.00 53 1012.7
20191121205353 53 119 1.0 5.0 0.00 0.00 0.00 53 1012.7
20191121204853 53 181 4.0 5.0 0.00 0.00 0.00 53 1012.6
20191121204423 53 136 3.0 4.0 0.00 0.00 0.00 53 1012.6
20191121203853 53 141 3.0 5.0 0.00 0.00 0.00 54 1012.6
20191121203353 52 30 0.0 8.0 0.00 0.00 0.00 55 1012.7
20191121202853 52 101 4.0 8.0 0.00 0.00 0.00 55 1012.6
20191121202353 52 117 3.0 8.0 0.00 0.00 0.00 54 1012.6
20191121201852 52 91 3.0 5.0 0.00 0.00 0.00 55 1012.8
20191121201352 52 110 4.0 5.0 0.00 0.00 0.00 55 1012.7
20191121200853 52 320 0.0 4.0 0.00 0.00 0.00 55 1012.5
20191121200354 51 174 0.0 4.0 0.00 0.00 0.00 56 1012.3
20191121195852 51 117 1.0 9.0 0.00 0.00 0.00 57 1012.3
20191121195352 50 155 2.0 9.0 0.00 0.00 0.00 57 1012.3